Location: Central Falls
(41.8900°N, 71.3929°W)
Time: 08:23:24
(UTC+00:00)

Tiros 1 despin weight - Pass Details

Date: 11 December 2023
Orbit: 581 x 624 km, 48.2° (Epoch: 29 February)

Event Time Altitude Azimuth Distance (km) Brightness Sun altitude
Rises 23:30:45 0° 289° (WNW) 2,808 ? -24.5°
Reaches altitude 10° 23:33:10 10° 298° (WNW) 1,903 ? -25.0°
Enters shadow 23:36:13 32° 336° (NNW) 1,007 ? -25.5°
Maximum altitude 23:37:13 37° 7° (N) 918 - -25.7°
Drops below altitude 10° 23:41:15 10° 75° (ENE) 1,895 - -26.4°
Sets 23:43:40 0° 84° (E) 2,795 - -26.9°
